Preview of NWS' New Version of Forecast
This preview is not operational and should not be used for support decisions.

Regional Weather Roundup (RWR)

Issued by National Weather Service (NWS)

                            
000
ASUS45 KBOU 230110
RWRCO 

WEATHER ROUNDUP FOR COLORADO
NATIONAL WEATHER SERVICE DENVER/BOULDER CO
700 PM MDT FRI MAR 22 2019

NOTE: "FAIR" INDICATES FEW OR NO CLOUDS BELOW 12000 FEET WITH NO
SIGNIFICANT WEATHER AND/OR OBSTRUCTIONS TO VISIBILITY.

COZ001>005-013-030-031-230200-
...NORTHWEST COLORADO...
  
CITY           SKY/WX    TMP DP  RH WIND       PRES   REMARKS
CRAIG          FAIR      37  30  75 S5        30.02R                  
HAYDEN         FAIR      34  29  82 CALM      30.03R                  
MEEKER         FAIR      36  30  79 CALM      30.03R                  
RANGELY        MOCLDY    43  32  64 S9        30.01S                  
RABBIT EARS PA CLOUDY    23  21  93 W10G17    30.00R FOG     WCI  12  
STEAMBOAT SPGS CLOUDY    37  28  70 SW5       30.01R                  
WALDEN         CLOUDY    30  27  86 N8        30.01R WCI  23          
$$

COZ006>008-011-230200-
...WEST CENTRAL VALLEYS...
  
CITY           SKY/WX    TMP DP  RH WIND       PRES   REMARKS
GRAND JUNCTION FAIR      42  36  79 S9        30.05R                  
MONTROSE       LGT RAIN  37  32  82 NW15      30.08R                  
EAGLE          FAIR      40  26  57 SW12      30.03R                  
RIFLE          CLOUDY    44  33  65 SW8       30.02R                  
DELTA          MOCLDY    44  34  69 CALM      30.06R                  
NUCLA          MOCLDY    37  32  81 E8        30.10R                  
$$

COZ017>023-064>068-230200-
...SOUTHWEST COLORADO...
  
CITY           SKY/WX    TMP DP  RH WIND       PRES   REMARKS
DURANGO        CLOUDY    37  28  70 W21G31    30.05R                  
CORTEZ         CLOUDY    39  33  79 E8        30.07R                  
PAGOSA SPRINGS LGT SNOW  34  28  77 W3        30.05R                  
TELLURIDE      MOCLDY    27  23  86 CALM      30.09R                  
WOLF CREEK PAS SNOW      16  16 100 SW14      30.07R VSB<1/4 WCI   1  
$$

COZ009-010-012-014-032>034-037-058>063-230200-
...CENTRAL COLORADO...
  
CITY           SKY/WX    TMP DP  RH WIND       PRES   REMARKS
ASPEN          FLURRIES  31  27  85 N3        30.02R                  
BUENA VISTA    MOCLDY    36  22  58 NW12G18   29.94R                  
COPPER MTN     CLOUDY    23  14  68 W20G29    29.98F WCI   8          
BERTHOUD PASS  CLOUDY    14   5  67 N22G33    29.96F WCI  -4          
COTTONWOOD PAS MOCLDY    32  18  55 W17G30    29.96S WCI  21          
GUNNISON       FAIR      35  21  56 W7        30.01R WCI  29          
GRANBY         CLOUDY    33  25  73 SW3       29.99S                  
KREMMLING      MOCLDY    37  27  65 NW9       29.99R                  
LEADVILLE      MOCLDY    25  16  68 NW16      29.97S WCI  12          
MONARCH PASS   FOG       18  14  86 W25G32    30.07S VSB<1/4 WCI  -1  
SALIDA         MOCLDY    40  21  47 W13G20    30.00R                  
SUNLIGHT       CLOUDY    21  19  93 W8G17     30.07S WCI  12          
WILKERSON PASS MOCLDY    23  19  86 W6        29.97S WCI  16          
$$

COZ069>075-230200-
...SAN LUIS VALLEY/SANGRE DE CRISTO MOUNTAINS...
  
CITY           SKY/WX    TMP DP  RH WIND       PRES   REMARKS
ALAMOSA        CLOUDY    38  16  40 NW7       29.95R                  
DEL NORTE      CLOUDY    33  23  65 NW24G31   29.99R WCI  21          
LA VETA PASS   NOT AVBL                                               
SAGUACHE       FAIR      36  19  51 CALM      29.97R                  
$$

COZ035-036-038>040-230200-
...NORTHERN COLORADO FRONT RANGE...
  
CITY           SKY/WX    TMP DP  RH WIND       PRES   REMARKS
DENVER INTL AP LGT RAIN  44  38  79 NW18      29.87R                  
AURORA         NOT AVBL                                               
FRONT RANGE AP CLOUDY    46  37  71 W18G28    29.87S                  
ERIE MUNI ARPT CLOUDY    46  33  62 N15       29.93R                  
BOULDER MUN AP CLOUDY    43  37  81 W6        29.87S                  
CENTENNIAL     LGT RAIN  44  35  70 NE7       29.87R                  
BROOMFIELD     CLOUDY    45  32  61 NW18      29.86F                  
FORT COLLINS   LGT RAIN  40  36  86 N20G26    29.92R                  
LONGMONT       CLOUDY    47  35  63 N17       29.90S                  
$$

COZ041-046-047-076>085-087-088-230200-
...PIKES PEAK/PALMER DIVIDE AND SOUTHERN FOOTHILLS...
  
CITY           SKY/WX    TMP DP  RH WIND       PRES   REMARKS
COLO. SPRINGS  CLOUDY    40  34  79 E7        29.88R                  
A. F. ACADEMY  MOCLDY    37  35  90 CALM      29.87R                  
SCHRIEVER AFB  NOT AVBL                                               
CHEYENNE MTN   MOCLDY    38  30  74 SW5       29.83R                  
ELLICOTT       LGT RAIN N/A N/A N/A S8        29.87R                  
FALCON         NOT AVBL                                               
FORT CARSON    NOT AVBL                                               
LIMON          CLOUDY    45  34  65 E7        29.88R                  
MONUMENT HILL  CLOUDY    36  32  87 MISG      29.90R                  
CANON CITY     NOT AVBL                                               
WALSENBURG     NOT AVBL                                               
TRINIDAD       FAIR      43  34  70 CALM      29.90R                  
$$

COZ042>045-048>051-090-091-230200-
...NORTHEAST COLORADO...
  
CITY           SKY/WX    TMP DP  RH WIND       PRES   REMARKS
GREELEY ARPT   LGT RAIN  39  36  89 NW29G35   29.91R FOG              
AKRON          MOCLDY    48  38  68 SE20      29.88S                  
BURLINGTON     CLOUDY    43  41  93 SE22G32   29.95R                  
WRAY           CLOUDY    46  41  81 SE20G29   29.95R                  
YUMA           CLOUDY    46  37  71 SE23      29.91R                  
STERLING       MOCLDY    52  41  66 SE17      29.87R                  
HOLYOKE        CLOUDY    52  43  71 SE21      29.96R                  
FORT MORGAN    LGT RAIN  45  39  78 W6        29.87R                  
$$

COZ086-089-092>099-230200-
...SOUTHEAST COLORADO...
  
CITY           SKY/WX    TMP DP  RH WIND       PRES   REMARKS
PUEBLO         CLOUDY    46  37  71 E13       29.84F                  
LA JUNTA       RAIN      45  42  89 E22       29.88F FOG              
LAMAR          CLOUDY    45  43  93 E9G22     29.88F                  
SPRINGFIELD      N/A     41  41 100 E8        29.88F                  
$$